Location: Hertford
(51.8000°N, 0.0667°W)
Time: 10:46:54
(UTC+00:00)

Daily predictions for brighter satellites

Satellite Brightness Start Highest point End
(mag) Time Altitude Azimuth Time Altitude Azimuth Time Altitude Azimuth
Cosmos 2016 Rocket 4.4 18:31:49 10° SSW 18:38:06 71° WNW 18:44:21 10° N
CREW DRAGON DEMO-1 DEB 2.8 18:41:43 10° W 18:44:46 83° S 18:47:48 10° E
USA 102 3.8 18:40:23 10° SSE 18:46:59 83° ENE 18:49:28 10° NNW
USA 229 DEB 4.3 18:43:00 10° WSW 18:49:30 58° NW 18:56:28 10° NE
USA 229 4.3 18:43:06 10° WSW 18:49:36 59° NW 18:56:33 10° NE
Cosmos 1782 Rocket 3.6 18:45:31 10° S 18:49:51 58° E 18:54:14 10° NNE
Cosmos 1025 Rocket 3.8 18:46:48 10° N 18:50:47 33° ENE 18:54:46 10° SE
Cosmos 1975 2.8 18:46:50 10° S 18:50:54 72° E 18:54:58 10° NNE
NOSS 3-2 (C) 4.4 18:44:04 10° NW 18:50:56 50° NNE 18:58:44 10° ESE
Cosmos 2233 Rocket 4.0 18:44:52 10° S 18:51:07 84° E 18:57:20 10° N
CZ-4 R/B 2.5 18:47:41 10° S 18:51:48 51° W 18:55:55 10° NNW
Cosmos 1908 Rocket 3.7 18:47:42 10° SSW 18:52:03 81° W 18:56:28 10° N
USA 186 2.6 18:49:46 10° SE 18:52:34 31° ENE 18:55:30 10° N
Meteor 2-11 Rocket 4.4 18:47:35 10° S 18:53:42 74° E 18:59:51 10° NNE
Nadezhda 4 Rocket 4.5 18:51:42 10° N 18:57:25 39° ENE 19:03:06 10° SE
Cosmos 2082 Rocket 4.3 18:57:00 10° N 18:59:55 14° NNE 19:02:49 10° NE
NOSS 3-1 (A) 4.1 18:56:00 10° WSW 19:01:39 59° NW 19:08:23 10° NE
Cosmos 1544 3.8 18:58:06 10° SSW 19:01:44 58° WNW 19:05:21 10° N
Cosmos 1937 Rocket 3.5 18:56:41 10° S 19:01:51 60° ESE 19:07:00 10° NNE
MOS 1 Rocket 3.3 18:58:34 10° NNE 19:03:01 52° E 19:07:15 10° S
OBJECT-B 2.4 19:01:23 13° ESE 19:03:08 19° ENE 19:05:32 10° NNE
Cosmos 1842 4.0 19:01:57 10° NNW 19:05:45 56° W 19:09:31 10° S
FREGAT/IRIS 3.3 19:05:32 15° ESE 19:07:07 27° ENE 19:09:25 10° N
Cosmos 1674 4.0 19:04:24 10° NNE 19:07:32 23° ENE 19:09:42 15° ESE
Cosmos 2297 Rocket 4.4 19:04:36 10° W 19:09:17 26° NW 19:13:59 10° NNE
Cosmos 1975 Rocket 3.3 19:06:24 10° NNW 19:10:45 73° W 19:15:02 10° S
COSMO-SKYMED 1 4.5 19:09:11 10° N 19:13:08 35° WNW 19:17:04 10° SW
NOSS 8 (H) 4.1 19:10:28 10° SSW 19:13:31 57° SE 19:16:32 10° NE
NOSS 8 (E) 4.1 19:10:27 10° SW 19:13:36 86° NW 19:16:40 10° NE
In-Cosmos 22 4.1 19:09:24 10° N 19:14:40 60° ENE 19:19:56 10° SSE
NOSS 2-2 (E) 3.6 19:14:05 10° SSW 19:17:23 40° SE 19:21:11 10° NE
Cosmos 1707 2.6 19:16:25 10° N 19:20:18 83° E 19:24:08 10° SSE
Resurs 01 Rocket 2.8 19:19:17 17° ESE 19:21:35 26° ENE 19:25:16 10° N
H-2A R/B 2.5 19:17:00 10° S 19:21:54 62° WSW 19:26:58 10° NNW
ATLAS 2AS CENTAUR R/B 4.5 19:24:48 13° E 19:24:48 13° E 19:26:53 10° ENE
ARGOS 3.3 19:17:43 10° SSE 19:23:05 78° WSW 19:28:30 10° NNW
Lacrosse 4 Rocket 3.8 19:21:47 10° N 19:23:09 11° NNE 19:24:31 10° NE
CZ-2C R/B 3.0 19:18:11 10° NNE 19:23:27 44° E 19:28:46 10° S
SJ-6B 2.7 19:21:47 11° SSE 19:25:19 60° ENE 19:29:02 10° N
NOSS 2-2 (D) 3.6 19:22:34 10° SSW 19:25:51 38° SE 19:29:32 10° NE
Sich 1 Rocket 3.6 19:23:33 10° S 19:28:03 84° E 19:32:37 10° NNE
Cosmos 1048 Rocket 4.1 19:24:39 10° NNW 19:29:55 64° ENE 19:34:10 16° SE
MOS 1 4.3 19:24:16 10° SSE 19:29:56 73° ENE 19:35:39 10° NNW
ATLAS CENTAUR R/B 3.7 19:29:06 10° WNW 19:31:55 19° NNW 19:34:40 10° NNE
CENTAUR R/B 3.3 19:24:13 10° NW 19:31:56 67° NE 19:38:33 19° ESE
ATLAS 3B R/B 3.5 19:31:36 10° NW 19:37:54 39° NNE 19:42:49 17° E
ARIANE 5 R/B 3.9 19:37:43 21° E 19:38:53 23° ENE 19:42:19 10° N
SL-08 RB Rocket 3.9 19:34:52 10° S 19:39:28 73° WSW 19:44:03 10° NNW
Cosmos 2263 Rocket 2.5 19:34:08 10° SW 19:39:40 70° WNW 19:45:18 10° NNE
USA 238 DEB 3.8 19:32:48 10° NW 19:39:59 87° NE 19:45:38 19° SE
USA 238 3.8 19:32:54 10° NW 19:40:05 86° NE 19:45:43 19° SE
ISS -2.4 19:38:47 10° SSW 19:41:14 24° SSE 19:41:14 24° SSE
Abrixas rocket 2.4 19:39:28 10° WSW 19:42:10 39° S 19:42:31 37° SSE
SJ 16-02 3.6 19:39:47 10° WSW 19:43:33 27° NW 19:47:21 10° N
Cosmos 1513 Rocket 4.4 19:37:29 10° S 19:43:46 85° E 19:49:59 10° N
Cosmos 1844 Rocket 3.1 19:41:55 10° S 19:47:00 38° ESE 19:52:07 10° NE
Okean 2 Rocket 3.0 19:43:40 10° S 19:48:11 86° E 19:52:41 10° NNE
Lacrosse 5 rocket 2.3 19:47:29 10° W 19:51:41 48° NNW 19:55:14 15° ENE
Cosmos 1464 Rocket 4.0 19:45:47 10° S 19:51:54 88° W 19:58:08 10° N
Okean 1 Rocket 3.7 19:51:22 30° SE 19:52:37 36° E 19:56:44 10° NNE
Cosmos 1092 Rocket 4.0 19:49:55 10° N 19:56:01 62° ENE 20:00:15 21° SSE
Ariane Rocket 3.4 19:51:09 10° S 19:56:11 64° WSW 20:01:15 10° NNW
Meteor 1-12 Rocket 4.4 19:53:35 10° SSW 19:59:31 83° WNW 20:05:23 10° NNE
Meteor 1-15 Rocket 4.3 19:54:12 10° S 19:59:40 57° E 20:05:17 10° NNE
Resurs 1-3 3.5 19:57:58 26° SSE 20:00:23 77° ENE 20:04:49 10° NNW
Cosmos 1300 Rocket 3.7 19:56:48 10° SSW 20:01:11 74° W 20:05:39 10° N
Cosmos 494 Rocket 3.9 19:57:40 10° NNW 20:02:58 76° ENE 20:05:36 30° SE
Cosmos 2026 Rocket 4.2 19:57:16 10° N 20:03:32 56° ENE 20:06:56 27° SE
Meteor 2-13 Rocket 4.4 19:58:35 10° N 20:04:47 74° ENE 20:09:01 21° SSE
CZ-2C R/B 4.0 20:00:33 10° NNE 20:04:47 42° E 20:05:30 39° SE
Cosmos 2298 Rocket 3.9 20:00:23 10° SSW 20:05:41 70° ESE 20:11:01 10° NNE
Cosmos 1833 Rocket 3.7 20:00:39 10° NNW 20:05:45 33° NE 20:07:47 26° E
SPOT 3 Rocket 3.4 20:03:38 24° SSE 20:06:46 80° ENE 20:11:57 10° NNW
NOSS 3-2 (A) 4.2 20:00:53 10° NW 20:08:13 71° SW 20:13:56 22° SSE
MetOp-A 4.5 20:03:50 10° S 20:09:09 65° WSW 20:14:31 10° NNW
NOSS 2-2 (C) 3.1 20:06:46 10° SW 20:10:19 89° NW 20:14:28 10° NE
Cosmos 1536 Rocket 4.3 20:10:26 10° NNW 20:14:46 54° W 20:18:27 14° S
Cosmos 1428 Rocket 4.5 20:09:38 10° N 20:15:55 64° ENE 20:18:51 32° SSE
Cosmos 1626 2.4 20:14:28 10° N 20:17:51 51° ENE 20:17:51 51° ENE
Terra 3.5 20:19:13 19° ENE 20:19:18 19° NE 20:22:35 10° NNE
Cosmos 1892 Rocket 4.0 20:16:01 10° N 20:20:06 41° ENE 20:20:06 41° ENE
CREW DRAGON DEMO-1 DEB 3.4 20:17:22 10° W 20:19:51 54° WSW 20:19:51 54° WSW
Cosmos 2279 Rocket 4.5 20:20:51 35° ESE 20:21:42 37° E 20:27:22 10° NNE
USA 186 4.4 20:21:02 10° SW 20:23:22 19° W 20:25:46 10° NW
DMSP B5D2-2 4.3 20:20:32 10° NNE 20:25:50 74° WNW 20:31:07 10° SSW
USA 234 3.3 20:19:53 10° ENE 20:26:16 52° SE 20:32:38 10° SW
Meteor 2-5 Rocket 3.6 20:22:17 10° NNW 20:27:56 89° ENE 20:30:35 34° SSE
Cosmos 2151 Rocket 4.3 20:25:07 10° SSW 20:29:28 53° WNW 20:33:55 10° N
OBJECT-B 2.3 20:34:35 29° SW 20:35:18 33° W 20:38:18 10° NNW
Cosmos 2150 Rocket 4.2 20:30:27 10° SSW 20:35:50 78° WNW 20:41:20 10° NNE
Cosmos 1805 3.2 20:35:56 77° SW 20:36:11 84° W 20:40:07 10° N
SPOT 5 3.8 20:40:10 36° ENE 20:40:19 37° ENE 20:45:09 10° N
NOSS 3-2 (C) 4.2 20:35:01 10° NW 20:42:22 68° SW 20:46:12 34° SSE
Cosmos 1674 4.1 20:39:37 10° NNW 20:43:11 36° W 20:44:32 27° SW
Meteor 1-22 Rocket 4.2 20:43:03 46° SSE 20:44:45 67° E 20:50:46 10° NNE
Cosmos 2082 Rocket 2.9 20:40:31 10° NNW 20:45:44 37° NE 20:46:33 35° ENE
Cosmos 1125 Rocket 3.4 20:41:14 10° SSW 20:46:33 89° WNW 20:51:55 10° NNE
Okean 1-7 Rocket 3.9 20:42:36 10° N 20:46:41 54° NE 20:46:41 54° NE
Cosmos 1733 3.9 20:52:17 50° N 20:52:17 50° N 20:55:14 10° N
SL-14 R/B 3.5 20:48:08 10° NNW 20:51:36 66° NW 20:51:36 66° NW
COSMOS 2406 3.1 20:47:50 10° NNW 20:53:33 76° ENE 20:54:20 64° ESE
Meteor 1-24 Rocket 3.8 20:49:20 10° NNW 20:54:47 74° W 20:56:22 47° S
CRYOSAT 2 4.2 20:51:50 10° N 20:56:47 87° E 20:57:03 80° SSE
ERS-1 Rocket 3.3 20:57:24 51° ENE 20:57:24 51° ENE 21:02:03 10° N
Resurs 01 Rocket 2.4 20:56:51 39° SW 20:57:52 47° W 21:02:11 10° NNW
Cosmos 2098 Rocket 4.1 20:55:34 10° N 21:02:50 64° ENE 21:03:50 57° ESE
Lacrosse 4 Rocket 2.7 20:59:17 10° NNW 21:02:11 31° NNE 21:02:11 31° NNE
CZ-2C R/B 4.1 20:58:39 10° N 21:03:40 37° WNW 21:08:44 10° SW
Landsat 7 3.8 21:04:41 78° WSW 21:04:46 78° WSW 21:09:34 10° NNW
Cosmos 2266 Rocket 4.1 20:59:33 10° N 21:05:29 53° ENE 21:05:34 53° ENE
Exosat Rocket 3.7 21:01:44 10° SW 21:07:09 72° WNW 21:12:10 10° NNE
Cosmos 1766 4.2 21:08:59 46° WNW 21:08:59 46° WNW 21:12:38 10° N
Cosmos 1655 Rocket 3.9 21:05:39 10° N 21:11:55 73° ENE 21:12:30 68° ESE
ATLAS CENTAUR R/B 4.0 21:10:48 10° NNW 21:12:10 12° N 21:13:31 10° NNE
ATLAS 2AS CENTAUR R/B 3.0 21:11:59 54° SE 21:12:30 55° ESE 21:20:08 10° NE
IGS 5A 4.1 21:13:37 53° WNW 21:13:37 53° WNW 21:17:07 10° NNW
SPOT 1/Viking Rocket 3.5 21:14:25 80° SW 21:14:31 81° WSW 21:19:44 10° NNW
ARIANE 5 R/B 3.2 21:15:16 51° W 21:15:16 51° W 21:19:20 10° NNW
Cosmos 2278 Rocket 4.0 21:22:33 19° NE 21:22:33 19° NE 21:24:13 10° NE
Cosmos 1844 4.0 21:13:17 10° SW 21:18:56 66° NW 21:24:35 10° NNE
Cosmos 1455 Rocket 4.4 21:23:00 33° NNE 21:23:00 33° NNE 21:25:27 10° NNE
Cosmos 1634 Rocket 4.4 21:19:01 26° SSW 21:22:32 60° WNW 21:28:41 10° N
CENTAUR R/B 3.7 21:15:05 10° NW 21:22:44 49° WSW 21:25:44 36° SSW
Cosmos 2285 Rocket 4.4 21:21:54 10° SW 21:28:07 60° WNW 21:34:27 10° NNE
Spot 2 Rocket 3.9 21:28:19 56° WSW 21:28:21 56° W 21:33:20 10° NNW
ATLAS 3B R/B 2.5 21:22:26 10° NW 21:29:18 87° SW 21:30:03 74° SSE
Cosmos 1844 Rocket 3.6 21:25:27 10° SW 21:30:48 47° NW 21:36:14 10° NNE
Lacrosse 5 rocket 2.6 21:27:13 10° WNW 21:30:50 42° NNW 21:30:50 42° NNW
Cosmos 909 Rocket 3.9 21:40:17 10° NW 21:46:53 87° NNW 21:46:53 87° NNW
Cosmos 1833 Rocket 3.1 21:44:28 10° NW 21:49:28 57° W 21:49:28 57° W
Cosmos 2251 Rocket 4.1 21:48:59 10° NNW 21:53:17 57° NW 21:53:17 57° NW
Terra 2.9 21:58:06 42° NNW 21:58:06 42° NNW 22:01:18 10° NNW
USA 234 3.3 22:03:00 10° ENE 22:09:32 76° NNW 22:16:04 10° WSW
SPOT 5 4.3 22:19:24 37° WNW 22:19:24 37° WNW 22:23:21 10° NNW
MOS 1-B Rocket 4.5 22:14:25 10° NNE 22:20:17 67° NE 22:20:17 67° NE
Cosmos 2082 Rocket 3.3 22:24:35 10° NW 22:28:23 39° WNW 22:28:23 39° WNW
NOSS 3-4 (A) 4.1 22:41:29 51° N 22:41:29 51° N 22:46:43 10° NE
NOSS 3-4 (C) 4.1 22:41:40 50° N 22:41:40 50° N 22:46:49 10° NE
Lacrosse 4 Rocket 4.3 22:37:58 10° NW 22:38:29 13° NW 22:38:29 13° NW
CZ-4C R/B 4.3 23:02:00 20° NE 23:02:00 20° NE 23:03:51 10° NE
Cosmos 2278 Rocket 3.5 23:04:22 38° NNW 23:04:22 38° NNW 23:08:28 10° NNE
ATLAS 2AS CENTAUR R/B 3.4 22:59:08 27° WSW 23:03:39 59° NW 23:11:19 10° NE
ATLAS 3B R/B 4.4 23:13:55 10° WNW 23:17:17 22° W 23:17:17 22° W
NOSS 3-1 (C) 4.3 23:21:39 10° NW 23:28:36 57° NE 23:28:49 57° NE
USA 234 4.0 23:45:53 10° ENE 23:54:28 40° WNW 23:58:38 10° WNW
